Regional Weather Roundup
Issued by NWS

Home | Current Version | Previous Version | Text Only | Print | Product List | Glossary On
Versions: 1 2 3 4 5 6 7 8 9 10 11 12 13 14 15 16 17 18 19 20 21 22 23 24 25 26 27
000
ASUS45 KPSR 261110
RWRAZ

ARIZONA HOURLY REGIONAL WEATHER ROUNDUP
NATIONAL WEATHER SERVICE PHOENIX AZ
400 AM MST THU MAY 26 2016

NOTE: FAIR INDICATES FEW OR NO CLOUDS BELOW 12,000 FEET WITH NO
SIGNIFICANT WEATHER AND/OR OBSTRUCTIONS TO VISIBILITY.

AZZ001>003-036-261200-
NORTHWEST ARIZONA

CITY           SKY/WX    TMP DP  RH WIND       PRES   REMARKS
BULLHEAD CITY  CLEAR     66  32  28 CALM      29.88R
KINGMAN        CLEAR     49  32  52 MISG      29.94S
$$

AZZ004>008-015-016-018-261200-
NORTH CENTRAL ARIZONA

CITY           SKY/WX    TMP DP  RH WIND       PRES   REMARKS
GRAND CANYON   MOCLDY    37  26  64 CALM      30.03S
WILLIAMS       MOCLDY    36  25  64 S7        30.10F WCI  30
PRESCOTT       PTCLDY    47  25  42 SW9       29.99F
FLAGSTAFF      PTCLDY    37  23  56 CALM      30.03S
PAYSON         CLEAR     50  19  29 CALM      30.02S
PAGE           PTCLDY    62  24  23 NW5       29.88F
$$

AZZ009>014-017-261200-
NORTHEAST ARIZONA

CITY           SKY/WX    TMP DP  RH WIND       PRES   REMARKS
WINSLOW        CLEAR     46  26  45 S12       29.97S
SAINT JOHNS    CLEAR     42  16  34 W3        30.02S
WINDOW ROCK    CLEAR     36  17  46 CALM      30.04S
SHOW LOW       CLEAR     39  10  30 S7        30.04F WCI  34
$$

AZZ023-261200-
GREATER PHOENIX AREA

CITY           SKY/WX    TMP DP  RH WIND       PRES   REMARKS
PHOENIX        CLEAR     70  35  27 W3        29.88S
BUCKEYE        PTCLDY    59  36  41 E7        29.91S
LUKE AFB       CLEAR     65  38  37 SW9       29.88S
DEER VALLEY    CLEAR     65  32  29 SE3       29.90R
SCOTTSDALE     CLEAR     65  27  23 CALM      29.92R
MESA-GATEWAY   CLEAR     61  28  29 E6        29.93R
$$

AZZ027-028-261200-
SOUTHWEST MARICOPA COUNTY AND PINAL COUNTY

CITY           SKY/WX    TMP DP  RH WIND       PRES   REMARKS
CASA GRANDE    CLEAR     59  28  31 CALM      29.92S
GILA BEND      FAIR      64  36  35 E5        29.91R
$$

AZZ503-504-507>509-261200-
SOUTHEAST ARIZONA

CITY           SKY/WX    TMP DP  RH WIND       PRES   REMARKS
TUCSON         CLEAR     57  21  24 VRB5      29.98F
DAVIS-MONTHAN  CLEAR     54  23  29 S1        29.97S
NOGALES        CLEAR     49  26  41 E5        30.00F
SIERRA VISTA   CLEAR     52  24  34 NW6       30.03F
DOUGLAS        CLEAR     63  24  22 W5        30.01S
SAFFORD        CLEAR     63  16  16 NW16      29.94S
$$

AZZ020-021-025-026-031-261200-
SOUTHWEST ARIZONA

CITY           SKY/WX    TMP DP  RH WIND       PRES   REMARKS
YUMA           CLEAR     60  43  53 S5        29.90F
$$

CAZ031-033-041-043-047-048-061-261200-
SOUTHERN CALIFORNIA

CITY           SKY/WX    TMP DP  RH WIND       PRES   REMARKS
DOWNTOWN L.A.  CLEAR     59  52  77 CALM      30.04F
L.A. AIRPORT   PTCLDY    56  52  86 E3        30.04F
SAN DIEGO      MOCLDY    63  52  67 W6        30.07F
BURBANK        CLEAR     55  49  80 CALM      30.04S
ONTARIO        MOCLDY    53  48  83 W6        30.05S
RIVERSIDE      MOCLDY    54  48  80 CALM      30.06R
PALM SPRINGS     N/A     66  43  43 MISG      29.91R
EL CENTRO NAS  CLEAR     63  40  42 W14       29.92S
IMPERIAL       CLEAR     59  42  53 W8        29.89S
BLYTHE         CLEAR     61  44  53 NW6       29.87S
NEEDLES        CLEAR     68  38  33 SW7       29.86R
$$

NVZ020-UTZ003-261200-
SOUTHERN NEVADA-UTAH

CITY           SKY/WX    TMP DP  RH WIND       PRES   REMARKS
LAS VEGAS      CLEAR     63  33  32 SW5       29.86R
SALT LAKE CITY PTCLDY    50  43  77 W5        29.99F
$$

NMZ009-TXZ055-261200-
NEW MEXICO-WEST TEXAS

CITY           SKY/WX    TMP DP  RH WIND       PRES   REMARKS
ALBUQUERQUE    CLEAR     51  15  23 S7        29.98R
EL PASO        CLEAR     72  23  16 W17G24    29.95S
$$


........................KEY........................
SKY/WX - SKY CONDITION/WEATHER
TMP    - TEMPERATURE IN FAHRENHEIT
DP     - DEW POINT IN FAHRENHEIT
RH     - RELATIVE HUMIDITY IN PERCENT
WIND   - DIRECTION AND SPEED IN MILES PER HOUR (MPH)
VRB    - VARIABLE WIND DIRECTION
PRES   - MEAN SEA LEVEL PRESSURE IN INCHES OF MERCURY
         F - FALLING PRESSURE   R - RISING PRESSURE
         S - STEADY PRESSURE
VSB    - VISIBILITY IN MILES
HX     - HEAT INDEX IN FAHRENHEIT
WCI    - WIND CHILL INDEX IN FAHRENHEIT
TC     - TEMPERATURE IN CELSIUS WHICH IS ALSO KNOWN AS
         TEMPERATURE IN CENTIGRADE
AFB    - AIR FORCE BASE
         LUKE AFB IS LUKE AIR FORCE BASE
         DAVIS-MONTHAN IS DAVIS-MONTHAN AIR FORCE BASE
NAS    - NAVAL AIR STATION
         EL CENTRO NAS IS EL CENTRO NAVAL AIR STATION
N/A    - NOT AVAILABLE





USA.gov is the U.S. government's official web portal to all federal, state and local government web resources and services.